EW5900 Weather Reports


Display with metric or nautical units.
time (UTC)temp
F
wind
direction
speed
MPH
gust
MPH
rain 1hr
in
rain 24hr
in
rain mn
in
humidity
%
barometer
mb
20181210102011 53 180 5.0 6.0 0.00 0.77 0.00 76 1015.5
20181210101536 53 180 5.0 5.0 0.00 0.77 0.00 76 1015.5
20181210101101 53 23 4.0 8.0 0.00 0.77 0.00 75 1015.5
20181210100626 53 248 3.0 4.0 0.00 0.77 0.00 75 1015.5
20181210100151 53 225 2.0 4.0 0.00 0.77 0.00 75 1015.2
20181210095716 53 135 3.0 10.0 0.00 0.77 0.00 75 1015.2
20181210095242 53 158 3.0 3.0 0.00 0.77 0.00 75 1015.5
20181210094806 53 248 2.0 5.0 0.00 0.77 0.00 74 1015.2
20181210094331 53 180 3.0 5.0 0.00 0.77 0.00 74 1015.2
20181210093856 53 135 5.0 5.0 0.00 0.77 0.00 74 1015.2
20181210093421 53 203 1.0 7.0 0.00 0.77 0.00 74 1015.2
20181210092946 53 90 7.0 7.0 0.00 0.77 0.00 74 1015.2
20181210092511 53 135 5.0 5.0 0.00 0.77 0.00 74 1015.2
20181210092036 53 248 5.0 5.0 0.00 0.77 0.00 74 1015.2
20181210091601 54 270 3.0 5.0 0.00 0.77 0.00 74 1015.2
20181210091126 54 135 3.0 6.0 0.00 0.77 0.00 74 1015.2
20181210090651 54 158 6.0 6.0 0.00 0.77 0.00 74 1015.2
20181210090216 54 113 4.0 6.0 0.00 0.77 0.00 74 1015.2
20181210084837 54 68 6.0 8.0 0.00 0.77 0.00 76 1014.9
20181210084402 54 90 8.0 8.0 0.00 0.77 0.00 77 1014.5
20181210083023 54 203 6.0 6.0 0.00 0.77 0.00 77 1014.5
20181210082548 54 90 6.0 6.0 0.00 0.77 0.00 77 1014.5
20181210082113 54 158 5.0 4.0 0.00 0.77 0.00 78 1014.5
20181210081638 54 225 1.0 5.0 0.00 0.77 0.00 78 1014.5
20181210080731 55 248 3.0 5.0 0.00 0.77 0.00 79 1014.5
20181210080256 55 225 1.0 8.0 0.00 0.77 0.00 79 1014.5
20181210075821 55 180 0.0 6.0 0.00 0.77 0.00 80 1014.5
20181210074914 55 158 4.0 6.0 0.00 0.77 0.00 81 1014.5
20181210074439 55 90 1.0 11.0 0.00 0.77 0.00 81 1014.5
20181210074004 55 135 3.0 8.0 0.00 0.77 0.00 82 1014.5
20181210073529 55 225 5.0 14.0 0.00 0.77 0.00 83 1014.5
20181210072623 55 180 5.0 6.0 0.00 0.77 0.00 83 1014.2
20181210072147 55 90 6.0 13.0 0.00 0.77 0.00 84 1014.2
20181210071712 55 90 13.0 6.0 0.00 0.77 0.00 84 1014.2
20181210071237 55 135 5.0 10.0 0.00 0.77 0.00 85 1014.2
20181210070802 55 135 6.0 9.0 0.00 0.77 0.00 85 1014.2
20181210070327 55 135 4.0 8.0 0.00 0.77 0.00 86 1014.2
20181210065852 55 90 7.0 10.0 0.00 0.77 0.00 86 1014.2
20181210065417 55 113 10.0 10.0 0.00 0.77 0.00 87 1014.2
20181210064942 55 90 5.0 6.0 0.00 0.77 0.00 87 1014.2
20181210064509 55 203 4.0 10.0 0.00 0.77 0.00 87 1014.2
20181210064035 55 248 5.0 8.0 0.00 0.77 0.00 88 1014.5
20181210063556 55 203 8.0 8.0 0.00 0.77 0.00 88 1014.2
20181210063121 55 180 5.0 5.0 0.00 0.77 0.00 88 1014.5
20181210062646 55 45 5.0 7.0 0.00 0.77 0.00 88 1014.5
20181210062211 55 135 6.0 8.0 0.00 0.77 0.00 88 1014.5
20181210061736 55 158 8.0 8.0 0.00 0.77 0.00 88 1014.5
20181210061301 55 338 5.0 8.0 0.00 0.77 0.00 88 1014.5
20181210060827 56 113 5.0 7.0 0.00 0.77 0.00 89 1014.5
20181210060352 56 90 3.0 4.0 0.00 0.77 0.00 89 1014.5
20181210055916 56 158 4.0 6.0 0.00 0.77 0.00 89 1014.2
20181210055441 56 248 3.0 6.0 0.00 0.77 0.00 89 1014.5
20181210055007 56 158 6.0 6.0 0.00 0.77 0.00 89 1014.2
20181210054531 56 180 3.0 4.0 0.00 0.77 0.00 89 1014.2
20181210053626 56 135 8.0 8.0 0.00 0.77 0.00 89 1014.2
20181210053150 56 225 4.0 6.0 0.00 0.77 0.00 89 1014.2
20181210052714 56 270 2.0 5.0 0.00 0.77 0.00 89 1014.2
20181210051806 56 90 5.0 7.0 0.00 0.77 0.00 89 1014.2
20181210051331 56 203 3.0 4.0 0.00 0.77 0.00 88 1014.2
20181210050856 57 248 1.0 7.0 0.00 0.77 0.00 88 1014.2
20181210050421 57 315 6.0 6.0 0.00 0.77 0.00 88 1014.2
20181210045945 58 248 2.0 5.0 0.00 0.77 0.77 87 1014.2
20181210045510 58 68 4.0 9.0 0.00 0.77 0.77 87 1014.2
20181210045035 58 113 5.0 6.0 0.00 0.77 0.77 87 1014.2
20181210044600 58 158 4.0 7.0 0.00 0.77 0.77 86 1014.2
20181210044125 58 158 3.0 8.0 0.00 0.77 0.77 86 1014.2
20181210043650 58 180 2.0 6.0 0.00 0.77 0.77 86 1014.2
20181210043215 58 158 5.0 11.0 0.00 0.77 0.77 86 1014.2
20181210042740 58 135 11.0 11.0 0.00 0.77 0.77 85 1014.2
20181210042304 59 270 3.0 8.0 0.00 0.77 0.77 84 1014.2
20181210041829 59 135 8.0 8.0 0.00 0.77 0.77 84 1014.2
20181210041354 59 0 3.0 6.0 0.00 0.77 0.77 83 1014.2
20181210040447 60 338 5.0 5.0 0.00 0.77 0.77 81 1014.2
20181210040012 60 248 1.0 3.0 0.00 0.77 0.77 81 1014.2
20181210035537 60 68 4.0 6.0 0.00 0.77 0.77 80 1014.2
20181210035102 61 315 3.0 10.0 0.00 0.77 0.77 80 1014.2
20181210034627 61 90 10.0 9.0 0.00 0.77 0.77 80 1014.2
20181210034152 60 23 3.0 12.0 0.00 0.77 0.77 80 1014.2
20181210033245 61 113 13.0 13.0 0.00 0.77 0.77 80 1013.8
20181210032810 61 135 7.0 10.0 0.00 0.77 0.77 80 1013.8
20181210032335 61 90 10.0 12.0 0.00 0.77 0.77 80 1013.8
20181210031428 61 113 9.0 11.0 0.00 0.77 0.77 80 1014.2
20181210030953 61 90 10.0 11.0 0.00 0.77 0.77 80 1014.2
20181210030518 61 68 6.0 11.0 0.00 0.77 0.77 80 1014.2
20181210030043 61 135 8.0 14.0 0.00 0.77 0.77 79 1013.8
20181210025608 61 113 8.0 10.0 0.00 0.77 0.77 79 1013.8
20181210024701 61 113 10.0 14.0 0.00 0.77 0.77 79 1013.8
20181210024226 61 135 11.0 16.0 0.00 0.77 0.77 79 1013.5
20181210023751 61 68 16.0 16.0 0.00 0.77 0.77 79 1013.5
20181210023316 61 135 7.0 6.0 0.00 0.77 0.77 80 1013.5
20181210022841 62 158 4.0 9.0 0.00 0.77 0.77 80 1013.5
20181210022406 62 90 5.0 9.0 0.00 0.77 0.77 80 1013.5
20181210021931 62 90 6.0 10.0 0.00 0.77 0.77 80 1013.5
20181210021456 62 158 10.0 10.0 0.00 0.77 0.77 79 1013.5
20181210021020 62 68 4.0 6.0 0.00 0.77 0.77 79 1013.5
20181210020546 62 180 1.0 9.0 0.00 0.77 0.77 79 1013.5
20181210020110 62 248 4.0 12.0 0.00 0.77 0.77 79 1013.5
20181210015635 62 90 5.0 11.0 0.00 0.77 0.77 79 1013.5
20181210015200 62 113 7.0 16.0 0.00 0.77 0.77 79 1013.5
20181210014253 63 90 7.0 10.0 0.00 0.77 0.77 79 1013.5
20181210013818 63 90 4.0 11.0 0.00 0.77 0.77 79 1013.5
20181210013343 63 68 5.0 14.0 0.00 0.77 0.77 79 1013.5
20181210012908 63 113 13.0 13.0 0.00 0.77 0.77 78 1013.5
20181210012433 63 90 8.0 11.0 0.00 0.77 0.77 78 1013.5
20181210011958 63 135 7.0 13.0 0.00 0.77 0.77 78 1013.2
20181210011523 63 45 4.0 18.0 0.00 0.77 0.77 77 1013.2
20181210011048 63 113 10.0 16.0 0.00 0.77 0.77 77 1013.2
20181210010613 64 90 11.0 13.0 0.00 0.77 0.77 77 1013.2
20181210010138 64 90 9.0 13.0 0.00 0.77 0.77 77 1013.2
20181210005703 64 90 6.0 13.0 0.00 0.77 0.77 77 1013.2
20181210004756 64 68 8.0 13.0 0.00 0.77 0.77 76 1012.8
20181210004321 64 68 10.0 10.0 0.00 0.77 0.77 76 1012.8
20181210003414 65 45 8.0 10.0 0.00 0.77 0.77 76 1012.8
20181210002939 65 90 10.0 11.0 0.00 0.77 0.77 76 1012.5
20181210002504 65 113 13.0 13.0 0.00 0.77 0.77 76 1012.5
20181210001557 65 135 5.0 12.0 0.00 0.77 0.77 75 1012.5
20181210001122 65 113 10.0 11.0 0.00 0.77 0.77 75 1012.8
20181210000647 65 113 2.0 13.0 0.00 0.77 0.77 75 1012.8
20181210000212 65 113 5.0 14.0 0.00 0.77 0.77 74 1012.8
20181209235736 65 90 12.0 14.0 0.00 0.77 0.77 75 1012.5
20181209235301 66 90 3.0 15.0 0.00 0.77 0.77 74 1012.5
20181209234354 66 135 16.0 16.0 0.00 0.77 0.77 75 1012.1
20181209233920 66 135 17.0 16.0 0.00 0.77 0.77 75 1012.1
20181209233444 66 90 8.0 13.0 0.00 0.77 0.77 76 1012.5
20181209233009 66 135 6.0 15.0 0.00 0.77 0.77 76 1012.1
20181209232534 67 90 15.0 16.0 0.00 0.77 0.77 77 1012.1
20181209232100 67 90 16.0 17.0 0.00 0.77 0.77 78 1012.1
20181209231624 67 90 16.0 16.0 0.00 0.77 0.77 79 1012.1
20181209231150 67 113 7.0 9.0 0.00 0.77 0.77 81 1011.8
20181209230714 67 90 6.0 9.0 0.00 0.77 0.77 81 1011.8
20181209230239 67 203 3.0 7.0 0.00 0.77 0.77 81 1011.8
20181209225804 67 135 5.0 7.0 0.00 0.77 0.77 82 1011.8
20181209225329 67 135 4.0 6.0 0.00 0.77 0.77 81 1011.8
20181209224854 68 135 3.0 7.0 0.00 0.77 0.77 81 1011.8
20181209223515 68 113 4.0 9.0 0.00 0.77 0.77 80 1011.8
20181209223041 68 135 4.0 8.0 0.00 0.77 0.77 80 1011.8
20181209222605 68 113 10.0 10.0 0.00 0.77 0.77 79 1011.5
20181209222130 68 90 10.0 10.0 0.00 0.77 0.77 79 1011.5
20181209221655 68 113 6.0 8.0 0.00 0.77 0.77 79 1011.5
20181209221220 68 90 7.0 8.0 0.00 0.77 0.77 78 1011.5
20181209220313 68 113 9.0 9.0 0.00 0.77 0.77 77 1011.5
20181209215406 69 45 7.0 8.0 0.00 0.77 0.77 75 1011.5
20181209214931 69 135 6.0 9.0 0.00 0.77 0.77 75 1011.5
20181209214456 69 90 9.0 12.0 0.00 0.77 0.77 74 1011.5
20181209214022 69 113 16.0 16.0 0.00 0.77 0.77 73 1011.5
20181209213547 69 113 6.0 15.0 0.00 0.77 0.77 73 1011.1
20181209213111 70 90 6.0 13.0 0.00 0.77 0.77 73 1011.5
20181209212636 70 113 13.0 18.0 0.00 0.77 0.77 73 1011.1
20181209212202 70 135 11.0 13.0 0.00 0.77 0.77 73 1011.5
20181209211726 71 90 10.0 21.0 0.00 0.77 0.77 74 1011.5
20181209211251 71 68 11.0 16.0 0.00 0.77 0.77 74 1011.1
20181209210816 72 113 5.0 10.0 0.00 0.77 0.77 75 1010.8
20181209210341 72 113 10.0 10.0 0.00 0.77 0.77 75 1011.1
20181209205906 72 135 6.0 11.0 0.00 0.77 0.77 74 1010.8
20181209205431 72 135 8.0 9.0 0.00 0.77 0.77 74 1010.8
20181209204956 72 90 7.0 16.0 0.00 0.77 0.77 74 1011.1
20181209204521 73 135 11.0 12.0 0.00 0.77 0.77 73 1010.8
20181209204047 73 90 6.0 11.0 0.00 0.77 0.77 74 1010.8
20181209203140 73 90 12.0 12.0 0.00 0.77 0.77 75 1010.8
20181209202704 73 158 6.0 10.0 0.00 0.77 0.77 75 1010.8
20181209202229 73 113 7.0 13.0 0.00 0.77 0.77 75 1011.1
20181209201754 72 90 11.0 11.0 0.00 0.77 0.77 75 1010.8
20181209201319 72 90 9.0 9.0 0.00 0.77 0.77 76 1010.8
20181209200413 72 135 10.0 10.0 0.00 0.77 0.77 77 1010.8
20181209195938 72 113 10.0 11.0 0.14 0.77 0.77 76 1010.8
20181209195502 72 90 8.0 15.0 0.14 0.77 0.77 77 1010.8
20181209195027 71 113 6.0 13.0 0.14 0.77 0.77 78 1010.8
20181209194552 71 113 9.0 15.0 0.14 0.77 0.77 79 1010.8
20181209193645 70 90 13.0 14.0 0.14 0.77 0.77 81 1010.8
20181209193211 70 135 10.0 13.0 0.14 0.77 0.77 82 1010.8
20181209192735 70 113 13.0 16.0 0.14 0.77 0.77 81 1011.1
20181209192300 70 135 15.0 15.0 0.14 0.77 0.77 82 1011.1
20181209191826 70 90 15.0 18.0 0.14 0.77 0.77 82 1011.1
20181209191350 70 135 13.0 13.0 0.14 0.77 0.77 83 1011.1
20181209190915 70 113 10.0 14.0 0.14 0.77 0.77 83 1011.5
20181209190009 70 90 11.0 14.0 0.14 0.77 0.77 83 1011.5
20181209185533 70 113 14.0 15.0 0.24 0.77 0.77 83 1011.5
20181209185058 70 113 15.0 18.0 0.24 0.77 0.77 83 1011.5
20181209184623 70 90 16.0 19.0 0.24 0.77 0.77 83 1011.5
20181209184148 70 68 5.0 13.0 0.24 0.77 0.77 84 1011.5
20181209183714 70 113 9.0 16.0 0.24 0.77 0.77 85 1011.5
20181209182806 70 113 14.0 16.0 0.24 0.77 0.77 87 1011.5
20181209181859 69 113 10.0 16.0 0.24 0.77 0.77 88 1011.5
20181209181424 69 135 8.0 13.0 0.24 0.77 0.77 89 1011.8
20181209180949 69 113 13.0 17.0 0.24 0.77 0.77 89 1011.8
20181209180514 69 113 17.0 17.0 0.24 0.77 0.77 89 1011.8
20181209180039 69 135 13.0 15.0 0.24 0.77 0.77 89 1011.8
20181209175604 69 90 15.0 16.0 0.09 0.77 0.77 90 1011.8
20181209175129 69 113 19.0 26.0 0.09 0.77 0.77 90 1011.5
20181209174654 69 113 26.0 26.0 0.09 0.77 0.77 90 1011.5
20181209174219 69 135 17.0 21.0 0.09 0.77 0.77 90 1011.5
20181209173312 69 113 14.0 19.0 0.09 0.77 0.77 91 1011.5
20181209172837 69 113 19.0 20.0 0.09 0.77 0.77 91 1011.8
20181209172402 69 113 17.0 23.0 0.09 0.76 0.76 91 1012.1
20181209171927 69 113 23.0 23.0 0.09 0.76 0.76 91 1011.8
20181209171453 69 135 15.0 15.0 0.09 0.75 0.75 91 1012.1
20181209171017 69 135 14.0 17.0 0.09 0.73 0.73 91 1012.1
20181209170542 69 158 12.0 21.0 0.09 0.70 0.70 91 1012.5
20181209170107 69 113 21.0 21.0 0.09 0.68 0.68 91 1012.8
20181209165632 69 135 19.0 18.0 0.25 0.66 0.66 91 1012.8
20181209165157 69 135 17.0 19.0 0.25 0.60 0.60 91 1013.2
20181209164722 69 113 17.0 21.0 0.25 0.57 0.57 91 1013.2
20181209164247 69 113 6.0 15.0 0.25 0.54 0.54 91 1013.2
20181209163812 69 90 7.0 14.0 0.25 0.52 0.52 91 1013.2
20181209163337 69 90 12.0 16.0 0.25 0.51 0.51 90 1013.2
20181209162902 70 113 24.0 24.0 0.25 0.48 0.48 90 1013.5
20181209162427 70 135 19.0 22.0 0.25 0.46 0.46 90 1013.5
20181209161952 69 68 21.0 23.0 0.25 0.45 0.45 91 1013.5
20181209161517 69 113 22.0 22.0 0.25 0.44 0.44 91 1013.5
20181209161042 69 113 14.0 23.0 0.25 0.42 0.42 90 1012.8
20181209160135 69 113 21.0 24.0 0.25 0.40 0.40 91 1013.2
20181209155700 69 113 14.0 20.0 0.05 0.39 0.39 91 1012.8
20181209154753 69 203 13.0 20.0 0.05 0.37 0.37 92 1013.2
20181209154318 69 113 11.0 16.0 0.05 0.36 0.36 92 1013.8
20181209153843 68 113 16.0 16.0 0.05 0.36 0.36 93 1013.5
20181209153408 68 135 15.0 16.0 0.05 0.35 0.35 93 1013.2
20181209152933 68 158 10.0 12.0 0.05 0.34 0.34 93 1013.5
20181209152458 68 135 16.0 15.0 0.05 0.34 0.34 93 1013.5
20181209151551 68 135 13.0 17.0 0.05 0.33 0.33 93 1013.2
20181209151116 68 158 17.0 17.0 0.05 0.32 0.32 93 1013.2
20181209150641 68 158 13.0 14.0 0.05 0.32 0.32 93 1013.2
20181209145734 68 135 8.0 13.0 0.00 0.31 0.31 93 1013.2
20181209145259 67 158 8.0 10.0 0.00 0.30 0.30 93 1013.5
20181209144824 67 135 11.0 12.0 0.00 0.29 0.29 93 1013.2
20181209144349 67 135 8.0 12.0 0.00 0.27 0.27 93 1013.2
20181209143914 67 135 10.0 13.0 0.00 0.25 0.25 93 1013.5
20181209143439 67 158 11.0 13.0 0.00 0.22 0.22 93 1013.8
20181209143004 67 158 13.0 14.0 0.00 0.20 0.20 92 1014.2
20181209142529 67 158 10.0 13.0 0.00 0.18 0.18 92 1014.2
20181209142054 67 180 7.0 13.0 0.00 0.16 0.16 92 1014.5
20181209141619 67 158 10.0 11.0 0.00 0.14 0.14 92 1014.2
20181209141144 67 135 11.0 14.0 0.00 0.12 0.12 92 1014.2
20181209135805 67 158 10.0 10.0 0.00 0.06 0.06 91 1014.2
20181209135330 67 135 11.0 12.0 0.00 0.04 0.04 91 1014.2
20181209134855 67 158 8.0 13.0 0.00 0.04 0.04 91 1014.2
20181209134420 67 158 8.0 10.0 0.00 0.03 0.03 91 1014.2
20181209133945 67 135 7.0 12.0 0.00 0.02 0.02 90 1014.5
20181209133510 68 158 10.0 10.0 0.00 0.01 0.01 90 1014.5
20181209133035 68 158 8.0 11.0 0.00 0.01 0.01 90 1014.5
20181209132128 68 158 7.0 10.0 0.00 0.00 0.00 89 1014.5
20181209131653 68 135 10.0 14.0 0.00 0.00 0.00 89 1014.9
20181209131218 68 135 8.0 13.0 0.00 0.00 0.00 89 1015.2
20181209130743 68 135 11.0 14.0 0.00 0.00 0.00 89 1015.2
20181209130308 68 135 14.0 14.0 0.00 0.00 0.00 89 1015.2
20181209125833 68 158 5.0 9.0 0.00 0.00 0.00 89 1014.9
20181209125358 68 158 9.0 9.0 0.00 0.00 0.00 89 1015.2
20181209124923 68 135 6.0 9.0 0.00 0.00 0.00 89 1015.2
20181209124448 68 113 9.0 9.0 0.00 0.00 0.00 89 1015.2
20181209124013 68 113 4.0 8.0 0.00 0.00 0.00 89 1015.2
20181209122634 67 135 6.0 8.0 0.00 0.00 0.00 89 1014.9
20181209122159 67 135 6.0 10.0 0.00 0.00 0.00 89 1014.9
20181209121724 67 135 8.0 12.0 0.00 0.00 0.00 89 1014.9
20181209120817 67 158 11.0 11.0 0.00 0.00 0.00 89 1014.5
20181209120342 67 158 5.0 13.0 0.00 0.00 0.00 89 1014.9
20181209115907 67 135 6.0 14.0 0.00 0.00 0.00 89 1014.9
20181209115432 67 135 7.0 10.0 0.00 0.00 0.00 89 1014.5
20181209114957 67 135 10.0 13.0 0.00 0.00 0.00 88 1014.5
20181209114522 67 135 10.0 14.0 0.00 0.00 0.00 88 1014.5
20181209114046 67 135 8.0 11.0 0.00 0.00 0.00 88 1014.5
20181209112707 67 158 8.0 12.0 0.00 0.00 0.00 88 1014.5
20181209112232 67 158 6.0 16.0 0.00 0.00 0.00 88 1014.5
20181209111757 67 135 7.0 12.0 0.00 0.00 0.00 88 1014.5
20181209110850 67 135 6.0 10.0 0.00 0.00 0.00 88 1014.5
20181209105943 67 158 10.0 11.0 0.00 0.00 0.00 87 1014.5
20181209105508 67 135 11.0 11.0 0.00 0.00 0.00 87 1014.5
20181209105033 67 135 12.0 12.0 0.00 0.00 0.00 87 1014.5
20181209104126 67 158 10.0 14.0 0.00 0.00 0.00 86 1014.9
20181209103219 67 135 8.0 12.0 0.00 0.00 0.00 86 1014.5
20181209102744 67 158 8.0 14.0 0.00 0.00 0.00 86 1014.5